Weather History for LIVT - November, 2012

Change the Weather History Date:

Sunday, November 11, 2012

  Actual Average Record
Temperature  
Mean Temperature 62 °F -  
Max Temperature 66 °F 51 °F 66 °F (2005)
Min Temperature 58 °F 44 °F 41 °F (2001)
Degree Days  
Heating Degree Days 3    
Growing Degree Days 12 (Base 50)    
Moisture  
Dew Point 55 °F    
Average Humidity 72    
Maximum Humidity 83    
Minimum Humidity 47    
Precipitation  
Precipitation 0.08 in 0.14 in - ()
Sea Level Pressure  
Sea Level Pressure 29.91 in    
Wind  
Wind Speed 6 mph ()    
Max Wind Speed 14 mph    
Max Gust Speed 38 mph    
Visibility 6.8 miles    
Events Rain    
Averages and records for this station are not official NWS values.
T = Trace of Precipitation, MM = Missing Value Source: Averaged Metar Reports

Daily Weather History Graph

Daily Weather History Graph

Search for Another Location

Airport or City:

Trip Planner

Search our weather history database for the weather conditions in past years. The results will help you decide how hot, cold, wet, or windy it might be!

Date:

Astronomy

Nov. 11, 2012 Rise Set
Actual Time 6:59 AM CET 4:38 PM CET
Civil Twilight 6:27 AM CET 5:10 PM CET
Nautical Twilight 5:51 AM CET 5:45 PM CET
Astronomical Twilight 5:16 AM CET 6:20 PM CET
Moon 3:45 AM CET (11/11) 2:56 PM CET (11/11)
Length of Visible Light 10h 42m
Length of Day
9h 39m
Waning Crescent, 9% of the Moon is Illuminated
Nov 11
Waning Crescent
Nov 13
New
Nov 20
First Quarter
Nov 28
Full
Dec 6
Last Quarter

Hourly Weather History & Observations

Time (CET) Temp. Dew Point Humidity Pressure Visibility Wind Dir Wind Speed Gust Speed Precip Events Conditions
12:55 AM 60.8 °F 53.6 °F 77% 29.89 in 6.2 mi South 2.3 mph - N/A   Mostly Cloudy
1:00 AM 60 °F 53 °F 70% 29.92 in 12 mi South 2.3 mph - - Rain Light Drizzle
1:55 AM 59.0 °F 53.6 °F 82% 29.89 in 6.2 mi East 4.6 mph - N/A   Mostly Cloudy
2:55 AM 62.6 °F 53.6 °F 72% 29.89 in 6.2 mi ESE 2.3 mph - N/A   Mostly Cloudy
3:55 AM 62.6 °F 51.8 °F 68% 29.89 in 6.2 mi SE 8.1 mph - N/A   Scattered Clouds
4:55 AM 62.6 °F 51.8 °F 68% 29.86 in 6.2 mi SE 6.9 mph 18.4 mph N/A   Scattered Clouds
5:55 AM 64.4 °F 51.8 °F 64% 29.86 in 6.2 mi SE 6.9 mph 20.7 mph N/A   Scattered Clouds
6:55 AM 64.4 °F 50.0 °F 59% 29.83 in 6.2 mi ESE 9.2 mph 34.5 mph N/A   Scattered Clouds
7:00 AM 65 °F 50 °F 47% 29.86 in 12 mi ESE 9.2 mph - -   Partly Cloudy
7:55 AM 64.4 °F 48.2 °F 56% 29.83 in 6.2 mi ESE 8.1 mph 23.0 mph N/A   Scattered Clouds
8:55 AM 64.4 °F 48.2 °F 56% 29.89 in 6.2 mi SE 13.8 mph 34.5 mph N/A   Scattered Clouds
9:55 AM 64.4 °F 50.0 °F 59% 29.86 in 6.2 mi SE 9.2 mph 31.1 mph N/A   Scattered Clouds
10:55 AM 66.2 °F 51.8 °F 60% 29.89 in 6.2 mi SSE 13.8 mph 35.7 mph N/A   Scattered Clouds
11:55 AM 66.2 °F 55.4 °F 68% 29.89 in 6.2 mi SSE 13.8 mph 36.8 mph N/A   Scattered Clouds
12:55 PM 64.4 °F 57.2 °F 77% 29.89 in 6.2 mi SE 12.7 mph 38.0 mph N/A Rain Light Rain
1:00 PM 64 °F 58 °F 74% 29.90 in 6 mi SE 12.7 mph - - Rain Light Rain
1:55 PM 64.4 °F 59.0 °F 83% 29.86 in 6.2 mi SSE 11.5 mph 33.4 mph N/A   Mostly Cloudy
2:55 PM 66.2 °F 59.0 °F 78% 29.89 in 6.2 mi SE 10.4 mph 26.5 mph N/A   Scattered Clouds
4:55 PM 64.4 °F 59.0 °F 83% 29.89 in 6.2 mi SE 12.7 mph 35.7 mph N/A Rain Light Rain
5:55 PM 66.2 °F 59.0 °F 78% 29.95 in 6.2 mi SE 9.2 mph 24.2 mph N/A   Mostly Cloudy
6:55 PM 66.2 °F 59.0 °F 78% 29.95 in 6.2 mi SE 8.1 mph 20.7 mph N/A   Mostly Cloudy
7:00 PM 65 °F 60 °F 77% 29.97 in 12 mi SE 8.1 mph - -   Partly Cloudy
7:55 PM 64.4 °F 59.0 °F 83% 29.98 in 6.2 mi ESE 4.6 mph - N/A   Partly Cloudy
8:55 PM 64.4 °F 59.0 °F 83% 29.95 in 6.2 mi SSE 4.6 mph - N/A   Scattered Clouds
9:55 PM 66.2 °F 57.2 °F 73% 29.98 in 6.2 mi SE 8.1 mph 29.9 mph N/A   Scattered Clouds
10:55 PM 64.4 °F 59.0 °F 83% 30.01 in 6.2 mi SSW 2.3 mph - N/A   Partly Cloudy
11:55 PM 64.4 °F 59.0 °F 83% 30.04 in 6.2 mi SE 3.5 mph - N/A   Mostly Cloudy